Observations for Trim Market St
| Time | AQI | Temp °C | Hum % | Pres Pa | CO μg/m³ | H₂S μg/m³ | NO μg/m³ | NO₂ μg/m³ | O₃ μg/m³ | SO₂ μg/m³ | PM1 μg/m³ | PM2.5 μg/m³ | PM10 μg/m³ |
|---|---|---|---|---|---|---|---|---|---|---|---|---|---|
| Wednesday 19 August 2026 | |||||||||||||
| 11:03 | 2 | 24.2 | 50 | 63,060 | 0 | 0 | 1.93 | 5.76 | 60.76 | 0 | 0 | 2.47 | 3.04 |
| 11:00 | 2 | 24.4 | 49 | 63,683 | 0 | 0 | 2.02 | 7.23 | 53.47 | 0 | 0 | 1.96 | 2.16 |
| 10:58 | 2 | 24.6 | 49 | 64,078 | 0 | 0 | 2.05 | 3.92 | 43.47 | 0 | 0 | 1.98 | 2.17 |
| 10:52 | 2 | 25.3 | 49 | 64,485 | 0.02 | 0 | 1.64 | 6.14 | 33.67 | 0 | 0 | 1.98 | 2.27 |
| 10:48 | 2 | 25.6 | 50 | 64,301 | 0.14 | 0 | 1.6 | 7.14 | 25.57 | 0 | 0 | 2.98 | 3.04 |
| 10:47 | 2 | 25.6 | 50 | 64,205 | 0 | 0 | 1.71 | 8.23 | 39.02 | 0 | 0.71 | 2.98 | 3.79 |
| 10:46 | 2 | 25.6 | 50 | 64,078 | 0 | 0 | 1.81 | 10.85 | 55.91 | 0 | 0 | 2.97 | 3.05 |
| 10:45 | 2 | 25.6 | 50 | 63,977 | 0 | 0 | 1.85 | 5.4 | 11 | 0 | 0 | 1.93 | 2.12 |
| 10:44 | 2 | 25.6 | 50 | 63,805 | 0.09 | 0 | 1.78 | 7.66 | 24.6 | 0 | 0 | 2.43 | 2.67 |
| 10:43 | 2 | 25.5 | 51 | 63,576 | 0.12 | 0 | 1.91 | 10.26 | 28.15 | 0 | 0 | 1.91 | 2.1 |
| 10:42 | 2 | 25.4 | 51 | 63,474 | 0.13 | 0 | 1.81 | 9.18 | 35.25 | 0 | 0.71 | 3.45 | 4.56 |
| 10:41 | 2 | 25.4 | 51 | 63,367 | 0.01 | 0 | 1.72 | 10.73 | 33.2 | 0 | 0.71 | 2.92 | 3.09 |
| 10:40 | 2 | 25.3 | 51 | 63,367 | 0.09 | 0 | 1.8 | 8.81 | 35.94 | 0 | 0 | 1.88 | 2.36 |
| 10:39 | 2 | 25.3 | 51 | 63,229 | 0.15 | 0 | 1.89 | 11.48 | 34.27 | 0 | 0 | 2.41 | 3.09 |
| 10:38 | 2 | 25.3 | 51 | 63,296 | 0.04 | 0 | 1.84 | 8.61 | 36.08 | 0 | 0 | 1.88 | 2.07 |
| 10:37 | 2 | 25.2 | 52 | 63,303 | 0.05 | 0 | 1.95 | 10.65 | 51.8 | 0 | 0 | 1.88 | 2.06 |
| 10:36 | 2 | 25.2 | 52 | 63,145 | 0.06 | 0 | 1.99 | 5.27 | 17.66 | 0 | 0.71 | 3.92 | 6.06 |
| 10:35 | 2 | 25.1 | 52 | 62,865 | 0.01 | 0 | 2.19 | 8.11 | 30.97 | 0 | 0.71 | 2.38 | 2.38 |
| 10:33 | 2 | 25 | 52 | 62,733 | 0 | 0 | 2.14 | 5.1 | 17.59 | 0 | 0 | 1.86 | 2.05 |
| 10:32 | 2 | 25 | 52 | 62,387 | 0.02 | 0 | 2.21 | 10.64 | 19.75 | 0 | 0 | 1.86 | 2.05 |